Simultaneous Nadir Overpasses (SNOs) Predictions

Prediction of SNOs between NOAA-19 and METOP-C Satellite Orbit:

Table of predicted SNOs for the next 14.0 days since TLE Epoch: 11/24/2024
Index Date (NOAA-19) Time (NOAA-19) Lat,Lon (NOAA-19) SZA (NOAA-19 ) Date (METOP-C) Time (METOP-C) Lat,Lon (METOP-C) SZA (METOP-C ) Distance(km) Time Diff (sec)
1 11/28/2024 12:12:49 54.15, 127.16 132.16 11/28/2024 12:13:58 54.16, 127.13 132.30 2.02 69
2 11/28/2024 13:02:51 -51.30, -64.09 46.00 11/28/2024 13:03:47 -51.32, -64.11 45.88 2.59 56
3 11/28/2024 13:52:07 45.08, 105.85 137.65 11/28/2024 13:52:42 45.09, 105.84 137.74 1.42 35
4 11/28/2024 14:43:00 -45.11, -86.88 42.37 11/28/2024 14:43:21 -45.13, -86.84 42.29 3.61 21
5 11/28/2024 15:34:03 45.01, 80.39 137.70 11/28/2024 14:43:21 45.05, 80.51 137.76 10.31 0
6 11/28/2024 16:25:10 -45.85,-112.66 42.77 11/28/2024 16:24:56 -45.90,-112.48 42.70 15.20 14
7 11/28/2024 17:16:36 47.06, 54.07 136.56 11/28/2024 17:16:00 47.10, 54.37 136.64 22.57 36
8 11/28/2024 18:32:05 -45.03, 54.09 109.86 11/28/2024 18:31:07 -45.10, 53.81 109.65 22.97 58



Historial Predications of SNOs between NOAA-19 and METOP-C
